Regional Weather Roundup
Issued by NWS

Home | Current Version | Previous Version | Graphics & Text | Print | Product List | Glossary On
Versions: 1 2 3 4 5 6 7 8 9 10 11 12 13 14 15 16 17 18 19 20 21 22 23 24 25 26 27 28 29 30 31 32 33 34 35 36 37 38 39 40 41 42 43 44 45 46 47 48 49 50
000
ASUS44 KMEG 111100
RWRTN
TENNESSEE HOURLY STATE WEATHER ROUNDUP
NATIONAL WEATHER SERVICE MEMPHIS TN
500 AM CST MON DEC 11 2017

TNZ002-004-019-021-049-052-054-088>092-111200-
WEST TENNESSEE

CITY           SKY/WX    TMP DP  RH WIND       PRES   REMARKS
MEMPHIS INTL   CLEAR     37  30  75 S5        30.17S WCI  33
NWS MEMPHIS      N/A     32 N/A N/A MISG        N/A
JACKSON        CLEAR     27  25  92 S3        30.15S
DYERSBURG      CLEAR     31  28  89 CALM      30.14F
$$

TNZ008-025-027-028-033-062-065-066-111200-
NORTH MIDDLE TENNESSEE

CITY           SKY/WX    TMP DP  RH WIND       PRES   REMARKS
NASHVILLE      CLEAR     33  25  72 S3        30.15S
CLARKSVILLE    CLEAR     29  23  78 CALM      30.14R
SMYRNA         CLEAR     24  23  96 CALM      30.17S
CROSSVILLE     CLEAR     26  21  81 CALM      30.12F
$$

TNZ061-075-076-078-094-096-097-111200-
SOUTH MIDDLE TENNESSEE

CITY           SKY/WX    TMP DP  RH WIND       PRES   REMARKS
$$

TNZ017-018-042-046-047-111200-
NORTHEAST TENNESSEE

CITY           SKY/WX    TMP DP  RH WIND       PRES   REMARKS
TRI CITIES     CLEAR     22  20  92 CALM      30.12F
$$

TNZ012-013-036-069-073-074-111200-
CENTRAL EAST TENNESSEE

CITY           SKY/WX    TMP DP  RH WIND       PRES   REMARKS
KNOXVILLE      CLEAR     31  26  82 CALM      30.15F
OAK RIDGE      CLEAR     28  24  85 W5        30.17S WCI  23
$$

TNZ083-085-099-111200-
SOUTHEAST TENNESSEE

CITY           SKY/WX    TMP DP  RH WIND       PRES   REMARKS
CHATTANOOGA    CLEAR     30  25  81 CALM      30.18S
$$

SKY/WX REPORTED AS FAIR MEANS FEW OR NO CLOUDS BELOW
12 THOUSAND FEET.




USA.gov is the U.S. government's official web portal to all federal, state and local government web resources and services.